Weather History for Crescent City, CA

Change the Weather History Date:

Monday, December 10, 2012

  Actual Average Record
Temperature  
Mean Temperature 51 °F 47 °F  
Max Temperature 58 °F 54 °F 70 °F (1976)
Min Temperature 44 °F 41 °F 30 °F (2009)
Degree Days  
Heating Degree Days 14 18  
Month to date heating degree days 143 174  
Since 1 July heating degree days 1642 1791  
Cooling Degree Days 0 0  
Month to date cooling degree days 0 0  
Year to date cooling degree days 0 0  
Moisture  
Dew Point 46 °F    
Average Humidity 81    
Maximum Humidity 100    
Minimum Humidity 62    
Precipitation  
Precipitation 0.00 in 0.32 in 2.01 in (1968)
Month to date precipitation 4.25 2.93  
Year to date precipitation 67.24 55.69  
Since 1 July precipitation 23.86 18.76  
Snow  
Snow 0.00 in - - ()
Month to date snowfall 0.0  
Since 1 July snowfall 0.0  
Snow Depth 0.00 in    
Sea Level Pressure  
Sea Level Pressure 30.27 in    
Wind  
Wind Speed 6 mph (North)    
Max Wind Speed 14 mph    
Max Gust Speed 29 mph    
Visibility 9 miles    
Events      
T = Trace of Precipitation, MM = Missing Value Source: NWS Daily Summary

Daily Weather History Graph

Daily Weather History Graph

Search for Another Location

Airport:

Trip Planner

Search our weather history database for the weather conditions in past years. The results will help you decide how hot, cold, wet, or windy it might be!

Date:

Astronomy

Dec. 10, 2012 Rise Set
Actual Time 7:33 AM PST 4:46 PM PST
Civil Twilight 7:02 AM PST 5:17 PM PST
Nautical Twilight 6:27 AM PST 5:52 PM PST
Astronomical Twilight 5:53 AM PST 6:26 PM PST
Moon 4:22 AM PST (12/10) 2:41 PM PST (12/10)
Length of Visible Light 10h 15m
Length of Day
9h 12m
Waning Crescent, 9% of the Moon is Illuminated
Dec 10
Waning Crescent
Dec 13
New
Dec 19
First Quarter
Dec 28
Full
Jan 4
Last Quarter

Hourly Weather History & Observations

Time (PST) Temp. Windchill Dew Point Humidity Pressure Visibility Wind Dir Wind Speed Gust Speed Precip Events Conditions
12:56 AM 48.0 °F - 45.0 °F 89% 30.33 in 10.0 mi North 4.6 mph - N/A   Clear
1:56 AM 46.9 °F - 43.0 °F 86% 30.33 in 10.0 mi North 5.8 mph - N/A   Clear
2:56 AM 46.9 °F - 43.0 °F 86% 30.34 in 10.0 mi North 4.6 mph - N/A   Clear
3:56 AM 46.9 °F - 43.0 °F 86% 30.33 in 7.0 mi North 4.6 mph - N/A   Clear
4:56 AM 46.9 °F - 42.1 °F 83% 30.32 in 10.0 mi North 4.6 mph - N/A   Clear
5:56 AM 44.1 °F 40.8 °F 39.9 °F 85% 30.32 in 10.0 mi NE 5.8 mph - N/A   Clear
6:56 AM 48.0 °F - 39.9 °F 74% 30.32 in 10.0 mi North 5.8 mph - N/A   Clear
7:56 AM 46.9 °F - 39.9 °F 77% 30.34 in 10.0 mi NNW 3.5 mph - N/A   Clear
8:56 AM 52.0 °F - 45.0 °F 77% 30.34 in 10.0 mi Calm Calm - N/A   Clear
9:56 AM 57.0 °F - 45.0 °F 64% 30.34 in 10.0 mi NE 3.5 mph - N/A   Clear
10:56 AM 55.9 °F - 46.9 °F 72% 30.33 in 10.0 mi NNW 6.9 mph - N/A   Clear
11:56 AM 55.9 °F - 48.9 °F 77% 30.30 in 10.0 mi NW 8.1 mph - N/A   Clear
12:56 PM 57.0 °F - 51.1 °F 81% 30.27 in 10.0 mi NW 8.1 mph - N/A   Clear
1:56 PM 57.0 °F - 51.1 °F 81% 30.25 in 10.0 mi NNW 6.9 mph - N/A   Clear
2:56 PM 55.9 °F - 51.1 °F 84% 30.24 in 10.0 mi NNW 12.7 mph - N/A   Clear
3:56 PM 54.0 °F - 51.1 °F 90% 30.24 in 8.0 mi NNW 10.4 mph - N/A   Clear
4:56 PM 53.1 °F - 50.0 °F 89% 30.22 in 5.0 mi NNW 8.1 mph - N/A   Clear
5:56 PM 52.0 °F - 50.0 °F 93% 30.22 in 6.0 mi NNW 4.6 mph - N/A   Clear
6:56 PM 48.9 °F - 46.9 °F 93% 30.21 in 4.0 mi NNW 5.8 mph - N/A   Clear
7:56 PM 48.9 °F - 48.0 °F 97% 30.19 in 4.0 mi NNW 5.8 mph - N/A   Clear
8:56 PM 46.0 °F - 45.0 °F 96% 30.19 in 10.0 mi Calm Calm - N/A   Clear
9:56 PM 46.0 °F 44.8 °F 45.0 °F 96% 30.18 in 8.0 mi SE 3.5 mph - N/A   Clear
10:56 PM 46.9 °F - 45.0 °F 93% 30.18 in 10.0 mi SE 3.5 mph - N/A   Clear
11:56 PM 45.0 °F 42.6 °F 44.1 °F 97% 30.17 in 10.0 mi SE 4.6 mph - N/A   Clear